#timestamp,LO_Frequency,Hit,StdDev 
1583468055.3,286047010.6,P
1583468075.2,286047007.8,P
1583468095.9,286047008.4,P
1583468115.7,286047006.6,Y
1583468135.6,286046997.2,P
1583468155.4,286046997.4,N
1583468175.2,286046997.1,N
1583468195.1,286046999.2,N
1583468196.0,286046999.2,N
1583468215.8,286046998.9,N
1583468235.7,286046998.9,N
1583468255.5,286046998.1,N
1583468275.3,286046999.3,N
1583468295.2,286046999.3,N
1583468315.0,286047001.1,N
1583468315.9,286047001.1,N
1583468335.7,286047000.9,N
1583468355.6,286047000.6,N
1583468375.4,286047000.8,N
1583468395.3,286047001.1,N
1583468415.1,286047001.0,N
1583468416.0,286047001.0,N
1583468435.8,286047001.2,N
1583468455.7,286047000.4,N
1583468475.5,286046999.8,N
1583468495.3,286046999.9,N
1583468515.2,286047002.8,N
1583468535.0,286047000.3,N
1583468535.9,286047000.3,N
1583468555.8,286047002.4,N
1583468575.6,286047002.7,N
1583468595.4,286047002.4,N
1583468615.3,286047001.7,N
1583468635.1,286047003.4,N
1583468655.9,286047001.3,N
1583468675.7,286047003.4,N
1583468695.5,286047005.8,Y
1583468715.4,286047004.0,P
1583468735.2,286047001.5,N
1583468755.0,286047001.3,N
1583468755.9,286047001.3,N
1583468775.8,286047004.4,Y
1583468795.6,286047000.5,P
1583468815.5,286046999.9,N
1583468835.3,286047002.8,P
1583468855.1,286047000.9,N
1583468875.9,286046999.9,N
1583468895.7,286046999.9,N
1583468915.5,286047001.2,N
1583468935.4,286046998.7,N
1583468955.2,286046996.9,N
1583468975.1,286046999.5,N
1583468976.0,286046999.5,N
1583468995.8,286046996.8,N
1583469015.6,286046997.8,N
1583469035.5,286046997.6,N
1583469055.3,286046997.6,N
1583469075.1,286046995.2,N
1583469095.9,286046997.3,N
1583469115.7,286046997.4,N
1583469135.6,286046997.0,N
1583469155.4,286046996.6,N
1583469175.2,286046997.6,N
1583469195.1,286046996.9,N
1583469196.0,286046996.9,N
1583469215.8,286046997.6,N
1583469235.6,286046997.8,N
1583469255.5,286046997.7,N
1583469275.3,286046997.6,N
1583469295.2,286046997.6,N
1583469315.9,286046997.7,N
1583469335.7,286046997.5,N
1583469355.6,286046997.5,N
1583469375.4,286046996.7,N
1583469395.2,286046999.6,N
1583469415.1,286047001.2,N
1583469416.0,286047001.2,N
1583469435.8,286047001.0,N
1583469455.7,286047001.6,N
1583469475.5,286047005.8,Y
1583469495.3,286047009.0,P
1583469515.2,286047006.9,N
1583469535.0,286047004.7,N
1583469535.9,286047004.7,N
1583469555.7,286047004.9,N
1583469575.6,286047005.8,N
1583469595.4,286047005.2,N
1583469615.3,286047006.6,N
1583469635.1,286047006.2,N
1583469636.0,286047006.2,N
1583469655.8,286047007.0,N
1583469675.7,286047004.9,N
1583469695.5,286047005.0,N
1583469715.3,286047004.5,N
1583469735.2,286047006.9,Y
1583469755.0,286047000.0,P
1583469755.9,286047000.0,N
1583469775.8,286047000.0,N
1583469795.6,286046998.7,N
1583469815.4,286046999.1,N
1583469835.3,286046997.0,N
1583469855.1,286046997.0,N
1583469875.9,286046999.4,N
1583469895.7,286046998.8,N
1583469915.5,286046998.2,N
1583469935.4,286046998.9,N
1583469955.2,286046996.7,N
1583469975.0,286046996.3,N
1583469975.9,286046996.3,N
1583469995.8,286046993.9,N
1583470015.6,286046996.3,N
1583470035.5,286046996.9,N
1583470055.3,286046998.8,N
1583470075.1,286046997.3,N
1583470095.9,286046997.9,N
1583470115.7,286046995.0,N
1583470135.6,286046996.1,N
1583470155.4,286046996.2,N
1583470175.2,286046994.3,N
1583470195.1,286046991.7,Y
1583470196.0,286046991.7,P
1583470215.8,286046995.1,N
1583470235.7,286046996.0,N
1583470255.5,286046995.8,N
1583470275.3,286046993.9,Y
1583470295.2,286046998.6,P
1583470315.0,286046998.4,N
1583470315.9,286046998.4,N
1583470335.8,286047001.0,N
1583470355.6,286047000.6,N
1583470375.4,286047002.3,N
1583470395.3,286047002.2,N
1583470415.1,286047002.6,N
1583470435.8,286047000.4,N
1583470455.7,286047002.8,N
1583470475.5,286047001.6,N
1583470495.4,286047002.0,N
1583470515.2,286047002.8,N
1583470535.0,286047000.7,N
1583470535.9,286047000.7,N
1583470555.8,286046998.2,N
1583470575.6,286046998.9,N
1583470595.5,286046999.6,N
1583470615.3,286046998.7,N
1583470635.1,286047000.0,N
1583470655.9,286047002.4,N
1583470675.7,286047000.4,N
1583470695.5,286046998.2,N
1583470715.4,286046999.4,N
1583470735.2,286046999.3,N
1583470755